Sussex, NJ

10:27 PM EDT on May 26, 2017 (GMT -0400)
Sussex

Weather History for KFWN - February, 2014

Change the Weather History Date:

Thursday, February 27, 2014

  Actual Average Record
Temperature  
Mean Temperature 14 °F -  
Max Temperature 27 °F 38 °F 64 °F (1976)
Min Temperature 0 °F 17 °F -14 °F (1963)
Degree Days  
Heating Degree Days 52    
Moisture  
Dew Point 1 °F    
Average Humidity 59    
Maximum Humidity 85    
Minimum Humidity 33    
Precipitation  
Precipitation 0.01 in - - ()
Sea Level Pressure  
Sea Level Pressure 29.78 in    
Wind  
Wind Speed 5 mph (West)    
Max Wind Speed 18 mph    
Max Gust Speed 28 mph    
Visibility 8 miles    
Events Fog , Snow    
Averages and records for this station are not official NWS values.
T = Trace of Precipitation, MM = Missing Value Source: NWS Daily Summary

Daily Weather History Graph

Daily Weather History Graph

Search for Another Location

Airport or City:

Trip Planner

Search our weather history database for the weather conditions in past years. The results will help you decide how hot, cold, wet, or windy it might be!

Date:

Astronomy

Feb. 27, 2014 Rise Set
Actual Time 6:35 AM EST 5:47 PM EST
Civil Twilight 6:08 AM EST 6:14 PM EST
Nautical Twilight 5:36 AM EST 6:46 PM EST
Astronomical Twilight 5:04 AM EST 7:18 PM EST
Moon 5:07 AM EST 4:09 PM EST
Length of Visible Light 12h 06m
Length of Day
11h 11m
Waning Crescent, 4% of the Moon is Illuminated
Feb 27
Waning Crescent
Mar 1
New
Mar 8
First Quarter
Mar 16
Full
Mar 23
Last Quarter

Hourly Weather History & Observations

Time (EST) Temp. Windchill Dew Point Humidity Pressure Visibility Wind Dir Wind Speed Gust Speed Precip Events Conditions
12:53 AM 1.9 °F - -2.9 °F 80% 29.86 in 10.0 mi Calm Calm - N/A   Clear
1:53 AM 1.0 °F - -2.9 °F 83% 29.85 in 10.0 mi Calm Calm - N/A   Clear
2:53 AM 1.9 °F - -2.9 °F 80% 29.80 in 10.0 mi Calm Calm - 0.00 in   Clear
3:53 AM -0.0 °F - -4.0 °F 83% 29.78 in 10.0 mi Calm Calm - N/A   Clear
4:53 AM 1.0 °F - -2.9 °F 83% 29.75 in 10.0 mi Calm Calm - N/A   Clear
5:53 AM 1.9 °F - -2.9 °F 80% 29.74 in 10.0 mi Calm Calm - N/A   Mostly Cloudy
6:53 AM 1.9 °F - -2.9 °F 80% 29.71 in 9.0 mi Calm Calm - N/A   Mostly Cloudy
7:53 AM 3.9 °F - -0.9 °F 80% 29.70 in 9.0 mi Calm Calm - 0.00 in   Overcast
8:53 AM 9.0 °F 2.4 °F -0.0 °F 67% 29.70 in 10.0 mi SW 3.5 mph - N/A   Overcast
9:53 AM 19.9 °F 12.1 °F -0.0 °F 42% 29.66 in 10.0 mi SW 5.8 mph - N/A   Scattered Clouds
10:53 AM 23.0 °F 12.4 °F 3.0 °F 42% 29.64 in 10.0 mi SSW 10.4 mph 25.3 mph N/A   Partly Cloudy
11:53 AM 26.1 °F 12.7 °F 3.9 °F 39% 29.62 in 10.0 mi SW 18.4 mph 27.6 mph N/A   Clear
12:53 PM 25.0 °F 15.5 °F 8.1 °F 49% 29.63 in 10.0 mi West 9.2 mph 18.4 mph N/A   Overcast
1:53 PM 24.1 °F 13.1 °F 10.0 °F 55% 29.64 in 10.0 mi SSW 11.5 mph 17.3 mph 0.00 in   Overcast
2:53 PM 26.1 °F 16.2 °F 3.0 °F 37% 29.66 in 10.0 mi West 10.4 mph 23.0 mph 0.00 in   Scattered Clouds
3:53 PM 27.0 °F 16.1 °F 1.9 °F 34% 29.68 in 10.0 mi West 12.7 mph 23.0 mph N/A   Mostly Cloudy
4:53 PM 26.1 °F 14.5 °F 1.9 °F 35% 29.69 in 10.0 mi WSW 13.8 mph 24.2 mph 0.00 in   Mostly Cloudy
5:38 PM 21.9 °F 11.0 °F 12.9 °F 68% 29.73 in 1.0 mi WNW 10.4 mph 25.3 mph 0.00 in Snow Light Snow
5:45 PM 21.0 °F 9.9 °F 14.0 °F 74% 29.75 in 0.2 mi West 10.4 mph 18.4 mph 0.00 in Snow Heavy Snow
5:53 PM 19.9 °F 10.1 °F 16.0 °F 85% 29.78 in 0.2 mi WNW 8.1 mph 18.4 mph 0.01 in Fog , Snow Snow
6:00 PM 19.9 °F 8.6 °F 12.9 °F 74% 29.76 in 1.2 mi WNW 10.4 mph 26.5 mph 0.00 in Snow Light Snow
6:02 PM 19.9 °F 7.3 °F 12.0 °F 71% 29.76 in 3.0 mi West 12.7 mph 26.5 mph 0.00 in Snow Light Snow
6:14 PM 19.0 °F 6.8 °F 10.0 °F 68% 29.79 in 7.0 mi NW 11.5 mph 25.3 mph 0.00 in Snow Light Snow
6:53 PM 18.0 °F 5.4 °F -2.0 °F 41% 29.86 in 10.0 mi WNW 11.5 mph 21.9 mph 0.00 in   Mostly Cloudy
7:53 PM 15.1 °F 6.4 °F -7.1 °F 37% 29.92 in 10.0 mi WNW 5.8 mph - N/A   Clear
8:53 PM 12.9 °F 0.7 °F -11.0 °F 34% 29.99 in 9.0 mi West 9.2 mph 24.2 mph N/A   Clear
9:53 PM 10.9 °F 0.2 °F -13.0 °F 33% 30.04 in 10.0 mi Variable 6.9 mph 16.1 mph N/A   Clear
10:53 PM 9.0 °F 0.6 °F -9.9 °F 42% 30.06 in 10.0 mi Variable 4.6 mph - N/A   Clear
11:53 PM 8.1 °F -2.0 °F -14.1 °F 36% 30.09 in 10.0 mi Variable 5.8 mph - N/A   Clear